20040719,000003,527059,33.426333,-117.880333,NaN,22.314,33.473,48.326,  NaN,0.0, NaN, NaN, NaN, NaN,22.970,488.353,21.90,1012.21,85.30,NaN,329.0,NaN,5.1,NaN,312.2,NaN,2.7,NaN,NaN, NaN,NaN,63.0,NaN,NaN,NaN,2,9.9,000001,   NaN,57.5,     NaN,      NaN,NaN,10.2,NaN,22.320, NaN,NaN,NaN, NaN, NaN
20040719,000033,527089,33.426833,-117.878833,NaN,22.239,33.477,48.256,  NaN,0.0, NaN, NaN, NaN, NaN,22.995,486.030,21.90,1012.27,85.20,NaN,329.0,NaN,4.8,NaN,305.6,NaN,2.7,NaN,NaN, NaN,NaN,63.0,NaN,NaN,NaN,2,10.0,000031,   NaN,58.8,     NaN,      NaN,NaN,10.8,NaN,22.244, NaN,NaN,NaN, NaN, NaN
20040719,000103,527119,33.427500,-117.877500,NaN,22.129,33.475,48.145,  NaN,0.0, NaN, NaN, NaN, NaN,23.024,483.233,21.90,1012.19,85.20,NaN,331.0,NaN,5.2,NaN,317.0,NaN,2.6,NaN,NaN, NaN,NaN,63.0,NaN,NaN,NaN,2,9.9,000061,   NaN,60.4,     NaN,      NaN,NaN,10.7,NaN,22.134, NaN,NaN,NaN, NaN, NaN
20040719,000133,527149,33.428167,-117.876000,NaN,22.084,33.471,48.096,  NaN,0.0, NaN, NaN, NaN, NaN,23.034,482.311,21.90,1012.14,85.20,NaN,329.0,NaN,4.8,NaN,308.2,NaN,2.7,NaN,NaN, NaN,NaN,63.0,NaN,NaN,NaN,2,9.9,000091,   NaN,60.3,     NaN,      NaN,NaN,10.5,NaN,22.089, NaN,NaN,NaN, NaN, NaN
20040719,000203,527179,33.428833,-117.874500,NaN,22.041,33.473,48.055,  NaN,0.0, NaN, NaN, NaN, NaN,23.046,481.079,21.90,1012.20,85.50,NaN,331.0,NaN,4.5,NaN,301.5,NaN,2.5,NaN,NaN, NaN,NaN,63.0,NaN,NaN,NaN,2,9.9,000121,   NaN,58.5,     NaN,      NaN,NaN,10.1,NaN,22.046, NaN,NaN,NaN, NaN, NaN
20040719,000233,527209,33.429333,-117.873000,NaN,22.031,33.471,48.043,  NaN,0.0, NaN, NaN, NaN, NaN,23.048,480.912,22.00,1012.21,85.60,NaN,334.0,NaN,4.7,NaN,306.3,NaN,2.2,NaN,NaN, NaN,NaN,64.0,NaN,NaN,NaN,2,9.9,000151,   NaN,59.2,     NaN,      NaN,NaN,10.3,NaN,22.036, NaN,NaN,NaN, NaN, NaN
20040719,000303,527239,33.430000,-117.871500,NaN,22.058,33.468,48.066,  NaN,0.0, NaN, NaN, NaN, NaN,23.038,481.861,21.90,1012.25,85.30,NaN,332.0,NaN,4.1,NaN,291.0,NaN,2.5,NaN,NaN, NaN,NaN,64.0,NaN,NaN,NaN,2,10.0,000181,   NaN,59.0,     NaN,      NaN,NaN,10.8,NaN,22.063, NaN,NaN,NaN, NaN, NaN
20040719,000333,527269,33.430667,-117.870000,NaN,22.105,33.468,48.112,  NaN,0.0, NaN, NaN, NaN, NaN,23.025,483.098,22.00,1012.19,85.60,NaN,327.0,NaN,4.2,NaN,294.9,NaN,2.8,NaN,NaN, NaN,NaN,65.0,NaN,NaN,NaN,2,9.9,000211,   NaN,58.8,     NaN,      NaN,NaN,10.1,NaN,22.110, NaN,NaN,NaN, NaN, NaN
20040719,000403,527299,33.431333,-117.868500,NaN,22.109,33.469,48.118,  NaN,0.0, NaN, NaN, NaN, NaN,23.025,483.120,21.90,1012.12,85.30,NaN,329.0,NaN,4.6,NaN,302.0,NaN,2.6,NaN,NaN, NaN,NaN,64.0,NaN,NaN,NaN,2,9.9,000241,   NaN,58.3,     NaN,      NaN,NaN,10.7,NaN,22.114, NaN,NaN,NaN, NaN, NaN
20040719,000433,527329,33.431833,-117.867167,NaN,21.997,33.466,48.003,  NaN,0.0, NaN, NaN, NaN, NaN,23.054,480.360,21.90,1012.23,85.30,NaN,327.0,NaN,4.6,NaN,302.6,NaN,2.8,NaN,NaN, NaN,NaN,64.0,NaN,NaN,NaN,2,9.9,000271,   NaN,59.3,     NaN,      NaN,NaN,10.5,NaN,22.002, NaN,NaN,NaN, NaN, NaN
20040719,000503,527359,33.432500,-117.865667,NaN,21.958,33.466,47.964,  NaN,0.0, NaN, NaN, NaN, NaN,23.064,479.385,21.90,1012.12,85.30,NaN,332.0,NaN,4.7,NaN,305.8,NaN,2.4,NaN,NaN, NaN,NaN,64.0,NaN,NaN,NaN,2,9.9,000301,   NaN,59.2,     NaN,      NaN,NaN,10.3,NaN,21.963, NaN,NaN,NaN, NaN, NaN
20040719,000533,527389,33.433167,-117.864167,NaN,21.947,33.462,47.949,  NaN,0.0, NaN, NaN, NaN, NaN,23.064,479.358,21.90,1012.13,85.20,NaN,327.0,NaN,4.7,NaN,303.7,NaN,2.8,NaN,NaN, NaN,NaN,64.0,NaN,NaN,NaN,2,9.9,000331,   NaN,58.0,     NaN,      NaN,NaN,10.4,NaN,21.953, NaN,NaN,NaN, NaN, NaN
20040719,000603,527419,33.433833,-117.862667,NaN,21.927,33.460,47.926,  NaN,0.0, NaN, NaN, NaN, NaN,23.069,478.931,21.90,1012.27,85.30,NaN,327.0,NaN,4.4,NaN,296.6,NaN,2.8,NaN,NaN, NaN,NaN,63.0,NaN,NaN,NaN,2,9.9,000361,   NaN,56.3,     NaN,      NaN,NaN,10.1,NaN,21.932, NaN,NaN,NaN, NaN, NaN
20040719,000633,527449,33.434500,-117.861333,NaN,21.905,33.457,47.901,  NaN,0.0, NaN, NaN, NaN, NaN,23.072,478.623,21.90,1012.16,85.50,NaN,329.0,NaN,4.9,NaN,306.1,NaN,2.7,NaN,NaN, NaN,NaN,63.0,NaN,NaN,NaN,2,9.9,000391,   NaN,55.8,     NaN,      NaN,NaN,10.0,NaN,21.911, NaN,NaN,NaN, NaN, NaN
20040719,000703,527479,33.435167,-117.859833,NaN,21.944,33.455,47.937,  NaN,0.0, NaN, NaN, NaN, NaN,23.060,479.795,21.90,1012.13,85.30,NaN,327.0,NaN,4.5,NaN,299.4,NaN,2.8,NaN,NaN, NaN,NaN,63.0,NaN,NaN,NaN,2,9.9,000421,   NaN,57.2,     NaN,      NaN,NaN,10.7,NaN,21.949, NaN,NaN,NaN, NaN, NaN
20040719,000733,527509,33.435833,-117.858333,NaN,22.004,33.454,47.995,  NaN,0.0, NaN, NaN, NaN, NaN,23.043,481.433,21.90,1012.09,85.50,NaN,331.0,NaN,5.0,NaN,309.9,NaN,2.5,NaN,NaN, NaN,NaN,60.0,NaN,NaN,NaN,2,9.9,000451,   NaN,56.5,     NaN,      NaN,NaN,10.3,NaN,22.010, NaN,NaN,NaN, NaN, NaN
20040719,000803,527539,33.436500,-117.857000,NaN,22.084,33.451,48.070,  NaN,0.0, NaN, NaN, NaN, NaN,23.018,483.800,22.00,1012.17,85.50,NaN,333.0,NaN,4.2,NaN,291.5,NaN,2.4,NaN,NaN, NaN,NaN,63.0,NaN,NaN,NaN,2,10.0,000481,   NaN,57.1,     NaN,      NaN,NaN,10.7,NaN,22.089, NaN,NaN,NaN, NaN, NaN
20040719,000833,527569,33.437167,-117.855500,NaN,22.162,33.450,48.145,  NaN,0.0, NaN, NaN, NaN, NaN,22.995,485.944,21.90,1012.14,85.50,NaN,334.0,NaN,4.2,NaN,290.1,NaN,2.3,NaN,NaN, NaN,NaN,61.0,NaN,NaN,NaN,2,10.0,000511,   NaN,56.3,     NaN,      NaN,NaN,10.5,NaN,22.167, NaN,NaN,NaN, NaN, NaN
20040719,000903,527599,33.437833,-117.854000,NaN,22.177,33.447,48.157,  NaN,0.0, NaN, NaN, NaN, NaN,22.989,486.546,22.00,1012.02,85.50,NaN,325.0,NaN,4.8,NaN,296.9,NaN,3.0,NaN,NaN, NaN,NaN,61.0,NaN,NaN,NaN,2,10.0,000541,   NaN,56.1,     NaN,      NaN,NaN,10.8,NaN,22.182, NaN,NaN,NaN, NaN, NaN
20040719,000933,527629,33.438500,-117.852667,NaN,22.211,33.450,48.194,  NaN,0.0, NaN, NaN, NaN, NaN,22.981,487.279,21.90,1012.07,85.30,NaN,334.0,NaN,4.9,NaN,309.3,NaN,2.5,NaN,NaN, NaN,NaN,58.0,NaN,NaN,NaN,2,10.0,000571,   NaN,53.9,     NaN,      NaN,NaN,10.4,NaN,22.217, NaN,NaN,NaN, NaN, NaN
20040719,001003,527659,33.439333,-117.851167,NaN,22.265,33.448,48.244,  NaN,0.0, NaN, NaN, NaN, NaN,22.965,488.852,22.00,1012.10,85.50,NaN,328.0,NaN,4.9,NaN,301.1,NaN,2.8,NaN,NaN, NaN,NaN,58.0,NaN,NaN,NaN,2,10.0,000601,   NaN,53.4,     NaN,      NaN,NaN,10.7,NaN,22.270, NaN,NaN,NaN, NaN, NaN
20040719,001033,527689,33.440000,-117.849833,NaN,22.283,33.448,48.263,  NaN,0.0, NaN, NaN, NaN, NaN,22.960,489.299,21.90,1012.06,85.50,NaN,325.0,NaN,5.4,NaN,305.6,NaN,3.0,NaN,NaN, NaN,NaN,56.0,NaN,NaN,NaN,2,10.1,000631,   NaN,52.6,     NaN,      NaN,NaN,10.6,NaN,22.288, NaN,NaN,NaN, NaN, NaN
20040719,001103,527719,33.440833,-117.848333,NaN,22.305,33.448,48.285,  NaN,0.0, NaN, NaN, NaN, NaN,22.954,489.907,21.90,1012.02,85.30,NaN,330.0,NaN,5.1,NaN,305.0,NaN,3.0,NaN,NaN, NaN,NaN,55.0,NaN,NaN,NaN,2,10.1,000661,   NaN,52.2,     NaN,      NaN,NaN,10.4,NaN,22.311, NaN,NaN,NaN, NaN, NaN
20040719,001133,527749,33.441667,-117.847000,NaN,22.341,33.446,48.318,  NaN,0.0, NaN, NaN, NaN, NaN,22.942,491.037,22.00,1012.13,85.60,NaN,333.0,NaN,5.0,NaN,310.7,NaN,2.4,NaN,NaN, NaN,NaN,55.0,NaN,NaN,NaN,2,10.1,000691,   NaN,50.6,     NaN,      NaN,NaN,10.6,NaN,22.347, NaN,NaN,NaN, NaN, NaN
20040719,001203,527779,33.442500,-117.845667,NaN,22.418,33.452,48.401,  NaN,0.0, NaN, NaN, NaN, NaN,22.925,492.684,22.00,1012.06,85.60,NaN,331.0,NaN,5.2,NaN,308.2,NaN,2.4,NaN,NaN, NaN,NaN,56.0,NaN,NaN,NaN,2,10.1,000721,   NaN,50.5,     NaN,      NaN,NaN,10.5,NaN,22.423, NaN,NaN,NaN, NaN, NaN
20040719,001233,527809,33.443167,-117.844333,NaN,22.471,33.451,48.453,  NaN,0.0, NaN, NaN, NaN, NaN,22.909,494.199,21.90,1012.19,85.50,NaN,331.0,NaN,4.6,NaN,297.3,NaN,2.3,NaN,NaN, NaN,NaN,56.0,NaN,NaN,NaN,2,10.1,000751,   NaN,50.4,     NaN,      NaN,NaN,10.5,NaN,22.477, NaN,NaN,NaN, NaN, NaN
20040719,001303,527839,33.444000,-117.842833,NaN,22.555,33.448,48.532,  NaN,0.0, NaN, NaN, NaN, NaN,22.884,496.600,22.00,1012.09,85.30,NaN,332.0,NaN,4.3,NaN,291.9,NaN,2.6,NaN,NaN, NaN,NaN,55.0,NaN,NaN,NaN,2,10.0,000781,   NaN,50.3,     NaN,      NaN,NaN,10.1,NaN,22.560, NaN,NaN,NaN, NaN, NaN
20040719,001333,527869,33.444833,-117.841500,NaN,22.578,33.452,48.561,  NaN,0.0, NaN, NaN, NaN, NaN,22.880,496.950,21.90,1012.10,85.60,NaN,329.0,NaN,5.1,NaN,301.7,NaN,2.7,NaN,NaN, NaN,NaN,56.0,NaN,NaN,NaN,2,10.1,000811,   NaN,51.8,     NaN,      NaN,NaN,11.0,NaN,22.584, NaN,NaN,NaN, NaN, NaN
20040719,001403,527899,33.445667,-117.840167,NaN,22.570,33.451,48.552,  NaN,0.0, NaN, NaN, NaN, NaN,22.882,496.807,21.90,1012.16,85.60,NaN,326.0,NaN,5.0,NaN,298.7,NaN,3.1,NaN,NaN, NaN,NaN,54.0,NaN,NaN,NaN,2,10.2,000841,   NaN,50.8,     NaN,      NaN,NaN,10.4,NaN,22.576, NaN,NaN,NaN, NaN, NaN
20040719,001433,527929,33.446500,-117.838833,NaN,22.578,33.448,48.554,  NaN,0.0, NaN, NaN, NaN, NaN,22.877,497.284,21.90,1012.16,85.60,NaN,326.0,NaN,4.5,NaN,293.4,NaN,2.8,NaN,NaN, NaN,NaN,56.0,NaN,NaN,NaN,2,10.1,000871,   NaN,51.8,     NaN,      NaN,NaN,10.5,NaN,22.583, NaN,NaN,NaN, NaN, NaN
20040719,001503,527959,33.447333,-117.837333,NaN,22.621,33.448,48.599,  NaN,0.0, NaN, NaN, NaN, NaN,22.865,498.396,22.00,1012.07,85.60,NaN,333.0,NaN,5.0,NaN,301.4,NaN,2.8,NaN,NaN, NaN,NaN,55.0,NaN,NaN,NaN,2,10.2,000901,   NaN,52.1,     NaN,      NaN,NaN,10.9,NaN,22.627, NaN,NaN,NaN, NaN, NaN
20040719,001533,527989,33.448167,-117.836000,NaN,22.662,33.449,48.639,  NaN,0.0, NaN, NaN, NaN, NaN,22.854,499.470,22.00,1012.13,85.60,NaN,331.0,NaN,4.8,NaN,298.0,NaN,2.7,NaN,NaN, NaN,NaN,55.0,NaN,NaN,NaN,2,10.2,000931,   NaN,50.8,     NaN,      NaN,NaN,10.8,NaN,22.667, NaN,NaN,NaN, NaN, NaN
20040719,001603,528019,33.449000,-117.834667,NaN,22.568,33.452,48.550,  NaN,0.0, NaN, NaN, NaN, NaN,22.883,496.708,22.00,1012.20,85.60,NaN,330.0,NaN,4.9,NaN,296.3,NaN,2.4,NaN,NaN, NaN,NaN,54.0,NaN,NaN,NaN,2,10.1,000961,   NaN,49.5,     NaN,      NaN,NaN,10.4,NaN,22.573, NaN,NaN,NaN, NaN, NaN
20040719,001633,528049,33.449667,-117.833167,NaN,22.506,33.445,48.480,  NaN,0.0, NaN, NaN, NaN, NaN,22.895,495.521,22.00,1012.12,85.70,NaN,326.0,NaN,4.4,NaN,285.4,NaN,2.9,NaN,NaN, NaN,NaN,55.0,NaN,NaN,NaN,2,10.1,000991,   NaN,51.9,     NaN,      NaN,NaN,10.5,NaN,22.511, NaN,NaN,NaN, NaN, NaN
20040719,001703,528079,33.450500,-117.831833,NaN,22.481,33.446,48.456,  NaN,0.0, NaN, NaN, NaN, NaN,22.903,494.774,22.00,1012.04,85.60,NaN,326.0,NaN,4.8,NaN,293.6,NaN,2.6,NaN,NaN, NaN,NaN,57.0,NaN,NaN,NaN,2,10.2,001021,   NaN,53.5,     NaN,      NaN,NaN,10.6,NaN,22.486, NaN,NaN,NaN, NaN, NaN
20040719,001733,528109,33.451333,-117.830500,NaN,22.516,33.445,48.489,  NaN,0.0, NaN, NaN, NaN, NaN,22.892,495.824,22.00,1012.14,85.70,NaN,325.0,NaN,4.8,NaN,289.6,NaN,3.1,NaN,NaN, NaN,NaN,53.0,NaN,NaN,NaN,2,9.9,001051,   NaN,50.4,     NaN,      NaN,NaN,9.9,NaN,22.521, NaN,NaN,NaN, NaN, NaN
20040719,001803,528139,33.452167,-117.829167,NaN,22.505,33.446,48.481,  NaN,0.0,0.570, NaN, NaN,24.100,22.896,495.423,22.00,1012.08,85.60,NaN,325.0,NaN,4.8,NaN,299.0,NaN,2.9,NaN,NaN,0.570,NaN,54.0,NaN,NaN,NaN,2,10.0,001081,   NaN,50.8,     NaN,      NaN,NaN,10.3,NaN,22.511,0.271,NaN,NaN, NaN, NaN
20040719,001833,528169,33.453000,-117.827833,NaN,22.508,33.446,48.483,  NaN,0.0, NaN, NaN, NaN, NaN,22.895,495.542,21.90,1012.09,85.60,NaN,327.0,NaN,4.7,NaN,290.2,NaN,2.8,NaN,NaN, NaN,NaN,55.0,NaN,NaN,NaN,2,10.1,001111,   NaN,51.9,     NaN,      NaN,NaN,10.8,NaN,22.514, NaN,NaN,NaN, NaN, NaN
20040719,001903,528199,33.453833,-117.826333,NaN,22.455,33.446,48.430,  NaN,0.0, NaN, NaN, NaN, NaN,22.910,494.107,22.00,1012.19,85.70,NaN,329.0,NaN,4.7,NaN,297.8,NaN,2.9,NaN,NaN, NaN,NaN,54.0,NaN,NaN,NaN,2,10.1,001141,   NaN,50.6,     NaN,      NaN,NaN,10.8,NaN,22.460, NaN,NaN,NaN, NaN, NaN
20040719,001933,528229,33.454667,-117.825000,NaN,22.467,33.444,48.440,  NaN,0.0, NaN, NaN, NaN, NaN,22.906,494.530,22.00,1012.20,85.50,NaN,327.0,NaN,4.0,NaN,284.1,NaN,3.0,NaN,NaN, NaN,NaN,53.0,NaN,NaN,NaN,2,10.0,001171,   NaN,51.0,     NaN,      NaN,NaN,10.7,NaN,22.472, NaN,NaN,NaN, NaN, NaN
20040719,002003,528259,33.455500,-117.823667,NaN,22.441,33.446,48.416,  NaN,0.0, NaN, NaN, NaN, NaN,22.914,493.703,22.00,1012.05,85.80,NaN,331.0,NaN,4.5,NaN,292.9,NaN,2.9,NaN,NaN, NaN,NaN,55.0,NaN,NaN,NaN,2,10.1,001201,   NaN,52.6,     NaN,      NaN,NaN,10.7,NaN,22.446, NaN,NaN,NaN, NaN, NaN
20040719,002033,528289,33.456333,-117.822333,NaN,22.415,33.447,48.392,  NaN,0.0, NaN, NaN, NaN, NaN,22.922,492.956,22.00,1012.07,85.70,NaN,329.0,NaN,4.7,NaN,294.8,NaN,3.0,NaN,NaN, NaN,NaN,54.0,NaN,NaN,NaN,2,10.1,001231,   NaN,49.9,     NaN,      NaN,NaN,10.8,NaN,22.420, NaN,NaN,NaN, NaN, NaN
20040719,002103,528319,33.457167,-117.821000,NaN,22.334,33.447,48.312,  NaN,0.0, NaN, NaN, NaN, NaN,22.945,490.793,22.00,1012.16,85.60,NaN,321.0,NaN,4.7,NaN,287.4,NaN,3.2,NaN,NaN, NaN,NaN,53.0,NaN,NaN,NaN,2,10.1,001261,   NaN,49.7,     NaN,      NaN,NaN,10.2,NaN,22.340, NaN,NaN,NaN, NaN, NaN
20040719,002133,528349,33.458000,-117.819500,NaN,22.383,33.442,48.354,  NaN,0.0, NaN, NaN, NaN, NaN,22.927,492.460,22.00,1012.17,85.70,NaN,330.0,NaN,4.4,NaN,288.6,NaN,2.6,NaN,NaN, NaN,NaN,55.0,NaN,NaN,NaN,2,10.1,001291,   NaN,51.2,     NaN,      NaN,NaN,10.3,NaN,22.389, NaN,NaN,NaN, NaN, NaN
20040719,002203,528379,33.458833,-117.818167,NaN,22.351,33.443,48.324,  NaN,0.0, NaN, NaN, NaN, NaN,22.937,491.514,22.00,1012.12,85.50,NaN,334.0,NaN,4.1,NaN,284.0,NaN,2.4,NaN,NaN, NaN,NaN,55.0,NaN,NaN,NaN,2,10.2,001321,   NaN,50.6,     NaN,      NaN,NaN,10.7,NaN,22.357, NaN,NaN,NaN, NaN, NaN
20040719,002233,528409,33.459667,-117.816833,NaN,22.351,33.445,48.326,  NaN,0.0, NaN, NaN, NaN, NaN,22.938,491.394,22.00,1012.11,86.00,NaN,327.0,NaN,4.8,NaN,290.6,NaN,3.0,NaN,NaN, NaN,NaN,53.0,NaN,NaN,NaN,2,10.2,001351,   NaN,51.4,     NaN,      NaN,NaN,10.6,NaN,22.357, NaN,NaN,NaN, NaN, NaN
20040719,002303,528439,33.460333,-117.815500,NaN,22.331,33.447,48.310,  NaN,0.0, NaN, NaN, NaN, NaN,22.946,490.653,22.00,1012.12,85.60,NaN,323.0,NaN,4.2,NaN,282.3,NaN,2.9,NaN,NaN, NaN,NaN,56.0,NaN,NaN,NaN,2,10.2,001381,   NaN,51.6,     NaN,      NaN,NaN,11.0,NaN,22.336, NaN,NaN,NaN, NaN, NaN
20040719,002333,528469,33.461333,-117.814167,NaN,22.312,33.449,48.293,  NaN,0.0, NaN, NaN, NaN, NaN,22.953,490.028,22.00,1012.05,85.70,NaN,330.0,NaN,4.8,NaN,298.3,NaN,2.8,NaN,NaN, NaN,NaN,52.0,NaN,NaN,NaN,2,10.2,001411,   NaN,50.4,     NaN,      NaN,NaN,10.4,NaN,22.318, NaN,NaN,NaN, NaN, NaN
20040719,002403,528499,33.462167,-117.812667,NaN,22.280,33.453,48.266,  NaN,0.0, NaN, NaN, NaN, NaN,22.965,488.885,22.00,1012.16,86.00,NaN,331.0,NaN,3.9,NaN,280.5,NaN,2.7,NaN,NaN, NaN,NaN,53.0,NaN,NaN,NaN,2,10.1,001441,   NaN,49.0,     NaN,      NaN,NaN,10.5,NaN,22.285, NaN,NaN,NaN, NaN, NaN
20040719,002433,528529,33.463000,-117.811333,NaN,22.251,33.455,48.241,  NaN,0.0, NaN, NaN, NaN, NaN,22.974,487.955,22.00,1012.06,86.10,NaN,324.0,NaN,4.7,NaN,288.8,NaN,3.1,NaN,NaN, NaN,NaN,53.0,NaN,NaN,NaN,2,10.0,001471,   NaN,50.4,     NaN,      NaN,NaN,11.2,NaN,22.257, NaN,NaN,NaN, NaN, NaN
20040719,002503,528559,33.463833,-117.810000,NaN,22.291,33.450,48.273,  NaN,0.0, NaN, NaN, NaN, NaN,22.959,489.442,22.00,1012.05,85.60,NaN,324.0,NaN,4.4,NaN,287.8,NaN,3.0,NaN,NaN, NaN,NaN,53.0,NaN,NaN,NaN,2,10.3,001501,   NaN,50.9,     NaN,      NaN,NaN,11.0,NaN,22.297, NaN,NaN,NaN, NaN, NaN
20040719,002533,528589,33.464667,-117.808667,NaN,22.385,33.450,48.367,  NaN,0.0, NaN, NaN, NaN, NaN,22.933,491.911,22.00,1012.09,85.70,NaN,325.0,NaN,4.5,NaN,294.0,NaN,3.2,NaN,NaN, NaN,NaN,54.0,NaN,NaN,NaN,2,10.1,001531,   NaN,52.2,     NaN,      NaN,NaN,10.7,NaN,22.391, NaN,NaN,NaN, NaN, NaN
20040719,002603,528619,33.465500,-117.807333,NaN,22.509,33.448,48.487,  NaN,0.0, NaN, NaN, NaN, NaN,22.897,495.365,21.90,1012.01,86.00,NaN,323.0,NaN,3.9,NaN,277.8,NaN,3.1,NaN,NaN, NaN,NaN,55.0,NaN,NaN,NaN,2,10.1,001561,   NaN,51.3,     NaN,      NaN,NaN,10.4,NaN,22.514, NaN,NaN,NaN, NaN, NaN
20040719,002633,528649,33.466333,-117.805833,NaN,22.490,33.458,48.482,  NaN,0.0, NaN, NaN, NaN, NaN,22.910,494.133,22.00,1012.01,85.80,NaN,325.0,NaN,4.2,NaN,283.4,NaN,3.0,NaN,NaN, NaN,NaN,54.0,NaN,NaN,NaN,2,10.3,001591,   NaN,50.7,     NaN,      NaN,NaN,11.1,NaN,22.495, NaN,NaN,NaN, NaN, NaN
20040719,002703,528679,33.467167,-117.804500,NaN,22.561,33.451,48.542,  NaN,0.0, NaN, NaN, NaN, NaN,22.884,496.564,22.00,1012.20,86.00,NaN,320.0,NaN,4.4,NaN,288.3,NaN,3.4,NaN,NaN, NaN,NaN,54.0,NaN,NaN,NaN,2,10.3,001621,   NaN,50.3,     NaN,      NaN,NaN,10.8,NaN,22.566, NaN,NaN,NaN, NaN, NaN
20040719,002733,528709,33.468000,-117.803167,NaN,22.661,33.461,48.655,  NaN,0.0, NaN, NaN, NaN, NaN,22.864,498.549,22.00,1012.10,86.00,NaN,324.0,NaN,4.2,NaN,285.4,NaN,2.9,NaN,NaN, NaN,NaN,55.0,NaN,NaN,NaN,2,10.2,001651,   NaN,51.2,     NaN,      NaN,NaN,10.6,NaN,22.667, NaN,NaN,NaN, NaN, NaN
20040719,002803,528739,33.468833,-117.801667,NaN,22.701,33.460,48.693,  NaN,0.0, NaN, NaN, NaN, NaN,22.851,499.736,22.00,1012.05,86.10,NaN,328.0,NaN,4.5,NaN,292.3,NaN,2.7,NaN,NaN, NaN,NaN,55.0,NaN,NaN,NaN,2,10.4,001681,   NaN,50.1,     NaN,      NaN,NaN,10.5,NaN,22.707, NaN,NaN,NaN, NaN, NaN
20040719,002833,528769,33.469667,-117.800333,NaN,22.729,33.469,48.732,  NaN,0.0, NaN, NaN, NaN, NaN,22.850,499.841,22.00,1012.17,86.00,NaN,328.0,NaN,4.4,NaN,288.9,NaN,2.9,NaN,NaN, NaN,NaN,53.0,NaN,NaN,NaN,2,10.1,001711,   NaN,48.9,     NaN,      NaN,NaN,10.2,NaN,22.734, NaN,NaN,NaN, NaN, NaN
20040719,002903,528799,33.470500,-117.799000,NaN,22.752,33.471,48.757,  NaN,0.0, NaN, NaN, NaN, NaN,22.845,500.310,22.00,1012.09,86.10,NaN,325.0,NaN,4.3,NaN,279.4,NaN,2.9,NaN,NaN, NaN,NaN,55.0,NaN,NaN,NaN,2,10.0,001741,   NaN,50.4,     NaN,      NaN,NaN,11.0,NaN,22.757, NaN,NaN,NaN, NaN, NaN
20040719,002933,528829,33.471167,-117.797667,NaN,22.772,33.473,48.780,  NaN,0.0, NaN, NaN, NaN, NaN,22.841,500.701,22.00,1012.03,85.80,NaN,327.0,NaN,4.0,NaN,284.4,NaN,2.4,NaN,NaN, NaN,NaN,57.0,NaN,NaN,NaN,2,10.3,001771,   NaN,52.1,     NaN,      NaN,NaN,10.5,NaN,22.778, NaN,NaN,NaN, NaN, NaN
20040719,003003,528859,33.472000,-117.796333,NaN,22.739,33.477,48.753,  NaN,0.0, NaN, NaN, NaN, NaN,22.853,499.518,22.00,1012.06,86.00,NaN,325.0,NaN,4.9,NaN,298.0,NaN,3.3,NaN,NaN, NaN,NaN,53.0,NaN,NaN,NaN,2,10.1,001801,   NaN,50.0,     NaN,      NaN,NaN,10.3,NaN,22.745, NaN,NaN,NaN, NaN, NaN
20040719,003033,528889,33.472833,-117.794833,NaN,22.674,33.482,48.694,  NaN,0.0, NaN, NaN, NaN, NaN,22.876,497.364,22.00,1012.04,86.10,NaN,323.0,NaN,4.7,NaN,292.3,NaN,3.4,NaN,NaN, NaN,NaN,55.0,NaN,NaN,NaN,2,10.0,001831,   NaN,51.3,     NaN,      NaN,NaN,10.8,NaN,22.679, NaN,NaN,NaN, NaN, NaN
20040719,003103,528919,33.473667,-117.793500,NaN,22.604,33.481,48.624,  NaN,0.0, NaN, NaN, NaN, NaN,22.895,495.542,22.00,1011.99,85.80,NaN,324.0,NaN,4.4,NaN,290.6,NaN,3.1,NaN,NaN, NaN,NaN,55.0,NaN,NaN,NaN,2,10.1,001861,   NaN,50.7,     NaN,      NaN,NaN,10.8,NaN,22.609, NaN,NaN,NaN, NaN, NaN
20040719,003133,528949,33.474500,-117.792167,NaN,22.631,33.480,48.650,  NaN,0.0, NaN, NaN, NaN, NaN,22.886,496.368,22.00,1012.03,85.70,NaN,327.0,NaN,4.2,NaN,285.8,NaN,2.8,NaN,NaN, NaN,NaN,54.0,NaN,NaN,NaN,2,10.2,001891,   NaN,50.2,     NaN,      NaN,NaN,10.7,NaN,22.637, NaN,NaN,NaN, NaN, NaN
20040719,003203,528979,33.475333,-117.790833,NaN,22.569,33.482,48.589,  NaN,0.0, NaN, NaN, NaN, NaN,22.905,494.570,22.00,1012.04,85.60,NaN,328.0,NaN,4.0,NaN,284.3,NaN,3.1,NaN,NaN, NaN,NaN,56.0,NaN,NaN,NaN,2,10.1,001921,   NaN,51.7,     NaN,      NaN,NaN,10.8,NaN,22.574, NaN,NaN,NaN, NaN, NaN
20040719,003233,529009,33.476167,-117.789333,NaN,22.565,33.481,48.584,  NaN,0.0, NaN, NaN, NaN, NaN,22.905,494.546,22.00,1011.99,86.00,NaN,320.0,NaN,4.0,NaN,281.4,NaN,3.1,NaN,NaN, NaN,NaN,57.0,NaN,NaN,NaN,2,10.2,001951,   NaN,52.3,     NaN,      NaN,NaN,10.8,NaN,22.570, NaN,NaN,NaN, NaN, NaN
20040719,003303,529039,33.476833,-117.788000,NaN,22.579,33.478,48.595,  NaN,0.0, NaN, NaN, NaN, NaN,22.900,495.069,22.00,1012.03,86.00,NaN,322.0,NaN,4.8,NaN,294.2,NaN,3.0,NaN,NaN, NaN,NaN,56.0,NaN,NaN,NaN,2,10.1,001981,   NaN,51.1,     NaN,      NaN,NaN,10.5,NaN,22.584, NaN,NaN,NaN, NaN, NaN
20040719,003333,529069,33.477667,-117.786667,NaN,22.505,33.484,48.529,  NaN,0.0, NaN, NaN, NaN, NaN,22.925,492.671,22.00,1012.00,85.60,NaN,327.0,NaN,4.2,NaN,284.9,NaN,3.0,NaN,NaN, NaN,NaN,57.0,NaN,NaN,NaN,2,10.1,002011,   NaN,52.6,     NaN,      NaN,NaN,10.6,NaN,22.510, NaN,NaN,NaN, NaN, NaN
20040719,003403,529099,33.478500,-117.785333,NaN,22.424,33.483,48.447,  NaN,0.0, NaN, NaN, NaN, NaN,22.947,490.602,22.00,1012.07,85.60,NaN,323.0,NaN,3.5,NaN,284.3,NaN,2.6,NaN,NaN, NaN,NaN,59.0,NaN,NaN,NaN,2,8.9,002041,   NaN,52.5,     NaN,      NaN,NaN,9.1,NaN,22.429, NaN,NaN,NaN, NaN, NaN
20040719,003433,529129,33.479000,-117.784167,NaN,22.358,33.481,48.380,  NaN,0.0, NaN, NaN, NaN, NaN,22.964,488.937,21.90,1012.13,85.70,NaN,310.0,NaN,2.5,NaN,273.6,NaN,2.7,NaN,NaN, NaN,NaN,60.0,NaN,NaN,NaN,2,7.1,002071,   NaN,51.8,     NaN,      NaN,NaN,7.2,NaN,22.363, NaN,NaN,NaN, NaN, NaN
20040719,003503,529159,33.479500,-117.783333,NaN,22.314,33.479,48.333,  NaN,0.0, NaN, NaN, NaN, NaN,22.975,487.918,22.00,1012.12,86.10,NaN,297.0,NaN,2.3,NaN,275.8,NaN,2.9,NaN,NaN, NaN,NaN,62.0,NaN,NaN,NaN,2,6.1,002101,   NaN,52.6,     NaN,      NaN,NaN,5.7,NaN,22.319, NaN,NaN,NaN, NaN, NaN
20040719,003533,529189,33.479833,-117.782500,NaN,22.272,33.476,48.288,  NaN,0.0, NaN, NaN, NaN, NaN,22.985,486.981,22.00,1012.10,86.00,NaN,284.0,NaN,1.7,NaN,283.8,NaN,2.9,NaN,NaN, NaN,NaN,68.0,NaN,NaN,NaN,2,5.2,002131,   NaN,63.5,     NaN,      NaN,NaN,4.5,NaN,22.277, NaN,NaN,NaN, NaN, NaN
20040719,003603,529219,33.480000,-117.781833,NaN,22.288,33.475,48.303,  NaN,0.0, NaN, NaN, NaN, NaN,22.979,487.527,22.20,1012.16,85.70,NaN,231.0,NaN,1.3,NaN,280.4,NaN,3.2,NaN,NaN, NaN,NaN,86.0,NaN,NaN,NaN,2,4.3,002161,   NaN,79.1,     NaN,      NaN,NaN,3.5,NaN,22.294, NaN,NaN,NaN, NaN, NaN
20040719,003633,529249,33.480000,-117.781167,NaN,22.266,33.478,48.284,  NaN,0.0, NaN, NaN, NaN, NaN,22.988,486.682,22.20,1012.05,85.70,NaN,240.0,NaN,1.2,NaN,275.1,NaN,2.9,NaN,NaN, NaN,NaN,89.0,NaN,NaN,NaN,2,3.8,002191,   NaN,77.3,     NaN,      NaN,NaN,3.1,NaN,22.271, NaN,NaN,NaN, NaN, NaN
20040719,003703,529279,33.480167,-117.780500,NaN,22.244,33.478,48.263,  NaN,0.0, NaN, NaN, NaN, NaN,22.994,486.075,22.20,1012.04,85.10,NaN,243.0,NaN,2.2,NaN,282.6,NaN,3.1,NaN,NaN, NaN,NaN,76.0,NaN,NaN,NaN,2,3.2,002221,   NaN,65.4,     NaN,      NaN,NaN,2.2,NaN,22.249, NaN,NaN,NaN, NaN, NaN
20040719,003733,529309,33.480167,-117.780167,NaN,22.129,33.482,48.153,  NaN,0.0, NaN, NaN, NaN, NaN,23.029,482.755,22.00,1012.18,85.50,NaN,247.0,NaN,2.3,NaN,281.5,NaN,2.9,NaN,NaN, NaN,NaN,73.0,NaN,NaN,NaN,2,2.3,002251,   NaN,56.0,     NaN,      NaN,NaN,1.6,NaN,22.134, NaN,NaN,NaN, NaN, NaN
20040719,003803,529339,33.480333,-117.779833,NaN,21.982,33.478,48.004,  NaN,0.0, NaN, NaN, NaN, NaN,23.067,479.140,22.00,1012.19,84.70,NaN,242.0,NaN,2.1,NaN,273.0,NaN,2.6,NaN,NaN, NaN,NaN,83.0,NaN,NaN,NaN,2,1.5,002281,   NaN,46.8,     NaN,      NaN,NaN,1.1,NaN,21.988, NaN,NaN,NaN, NaN, NaN
20040719,003833,529369,33.480333,-117.779667,NaN,21.920,33.474,47.937,  NaN,0.0, NaN, NaN, NaN, NaN,23.081,477.776,22.00,1012.14,84.90,NaN,241.0,NaN,2.5,NaN,273.4,NaN,2.9,NaN,NaN, NaN,NaN,93.0,NaN,NaN,NaN,2,1.2,002311,   NaN,51.8,     NaN,      NaN,NaN,0.8,NaN,21.925, NaN,NaN,NaN, NaN, NaN
20040719,003903,529399,33.480333,-117.779500,NaN,21.956,33.472,47.971,  NaN,0.0, NaN, NaN, NaN, NaN,23.070,478.868,22.20,1012.12,85.50,NaN,239.0,NaN,2.5,NaN,292.4,NaN,2.8,NaN,NaN, NaN,NaN,95.0,NaN,NaN,NaN,2,1.0,002341,   NaN,58.2,     NaN,      NaN,NaN,0.4,NaN,21.962, NaN,NaN,NaN, NaN, NaN
20040719,003933,529429,33.480333,-117.779500,NaN,21.781,33.483,47.812,  NaN,0.0, NaN, NaN, NaN, NaN,23.126,473.444,22.00,1012.13,84.80,NaN,230.0,NaN,2.7,NaN,286.0,NaN,3.1,NaN,NaN, NaN,NaN,105.0,NaN,NaN,NaN,2,0.9,002371,   NaN,59.7,     NaN,      NaN,NaN,0.2,NaN,21.787, NaN,NaN,NaN, NaN, NaN
20040719,004003,529459,33.480333,-117.779500,NaN,21.443,33.473,47.466,  NaN,0.0, NaN, NaN, NaN, NaN,23.212,465.289,22.00,1012.11,84.90,NaN,231.0,NaN,2.7,NaN,286.1,NaN,3.0,NaN,NaN, NaN,NaN,109.0,NaN,NaN,NaN,2,0.8,002401,   NaN,59.3,     NaN,      NaN,NaN,0.0,NaN,21.448, NaN,NaN,NaN, NaN, NaN